{"data":{"norad_id":60590,"intl_designator":"2024-150H","name":"STARLINK-32209","alt_names":[],"object_type":"PAYLOAD","status":"ACTIVE","operator":null,"country":"US","launch_date":"2024-08-20","launch_site_code":"AFETR","launch_vehicle":null,"mission":null,"orbit_class":"UNKNOWN","rcs_meters":null,"size_class":null,"mass_kg":null,"dimensions":null,"purposes":["comms"],"wikipedia_slug":null,"has_3d_model":false,"image_url":null,"decayed_at":null,"tle_current":{"epoch":"2026-05-25T03:55:07.997664Z","epoch_age_seconds":64528,"freshness":"FRESH","line1":"1 60590U 24150H   26145.16328701 -.00001758  00000+0 -40945-4 0  9996","line2":"2 60590  53.1606 310.8340 0001382  93.7142 266.4019 15.34371321 99761","mean_motion":15.34371321,"eccentricity":0.0001382,"inclination_deg":53.1606,"raan_deg":310.834,"arg_perigee_deg":93.7142,"mean_anomaly_deg":266.4019,"bstar":-4.0945e-5,"rev_number":9976,"period_min":93.849512193796,"perigee_km":461.84306566506,"apogee_km":463.73389746817,"semimajor_km":6840.9254815666,"source":"CELESTRAK","updated_at":"2026-05-25T13:38:19.279554Z"}}}